Weather History for NW Arkansas Airport, AR

Change the Weather History Date:

Saturday, October 12, 2013

  Actual Average Record
Temperature  
Mean Temperature 64 °F -  
Max Temperature 69 °F - - ()
Min Temperature 60 °F - - ()
Growing Degree Days 14 (Base 50)    
Moisture  
Dew Point 61 °F    
Average Humidity 89    
Maximum Humidity 100    
Minimum Humidity 78    
Precipitation  
Precipitation 0.54 in - - ()
Sea Level Pressure  
Sea Level Pressure 30.04 in    
Wind  
Wind Speed 9 mph (NNE)    
Max Wind Speed 20 mph    
Max Gust Speed 24 mph    
Visibility 9 miles    
Events Rain , Thunderstorm    
T = Trace of Precipitation, MM = Missing Value Source: NWS Daily Summary

Daily Weather History Graph

Daily Weather History Graph

Search for Another Location

Airport:

Trip Planner

Search our weather history database for the weather conditions in past years. The results will help you decide how hot, cold, wet, or windy it might be!

Date:

Astronomy

Oct. 12, 2013 Rise Set
Actual Time 7:21 AM CDT 6:44 PM CDT
Civil Twilight 6:56 AM CDT 7:10 PM CDT
Nautical Twilight 6:26 AM CDT 7:40 PM CDT
Astronomical Twilight 5:56 AM CDT 8:10 PM CDT
Moon 2:45 PM CDT (10/12) 12:37 AM CDT (10/12)
Length of Visible Light 12h 14m
Length of Day
11h 22m
First Quarter, 59% of the Moon is Illuminated
Oct 12
First Quarter
Oct 18
Full
Oct 26
Last Quarter
Nov 3
New
Nov 9
First Quarter

Hourly Weather History & Observations

Time (CDT) Temp. Dew Point Humidity Pressure Visibility Wind Dir Wind Speed Gust Speed Precip Events Conditions
12:53 AM 66.9 °F 63.0 °F 87% 29.89 in 10.0 mi South 9.2 mph - N/A   Clear
1:53 AM 64.9 °F 62.1 °F 90% 29.90 in 10.0 mi South 6.9 mph - N/A   Clear
2:53 AM 66.0 °F 63.0 °F 90% 29.89 in 10.0 mi South 5.8 mph - N/A   Scattered Clouds
3:53 AM 64.9 °F 63.0 °F 93% 29.88 in 10.0 mi South 9.2 mph - N/A   Clear
4:53 AM 66.0 °F 62.1 °F 87% 29.90 in 10.0 mi South 8.1 mph - N/A   Mostly Cloudy
5:53 AM 64.9 °F 63.0 °F 93% 29.94 in 10.0 mi North 8.1 mph - N/A   Mostly Cloudy
6:06 AM 66.2 °F 62.6 °F 88% 29.98 in 10.0 mi Variable 6.9 mph - N/A Thunderstorm Overcast
6:37 AM 64.4 °F 60.8 °F 88% 30.02 in 10.0 mi NNW 19.6 mph - 0.00 in Rain , Thunderstorm Light Thunderstorms and Rain
6:44 AM 62.6 °F 60.8 °F 94% 30.05 in 3.0 mi West 16.1 mph 24.2 mph 0.09 in Rain , Thunderstorm Thunderstorms and Rain
6:46 AM 62.6 °F 60.8 °F 94% 30.04 in 1.5 mi WNW 15.0 mph - 0.23 in Rain , Thunderstorm Heavy Thunderstorms and Rain
6:50 AM 60.8 °F 60.8 °F 100% 30.02 in 0.8 mi NNW 12.7 mph - 0.40 in Rain , Thunderstorm Heavy Thunderstorms and Rain
6:53 AM 60.1 °F 60.1 °F 100% 29.99 in 0.8 mi NNW 10.4 mph - 0.49 in Rain , Thunderstorm Heavy Thunderstorms and Rain
7:01 AM 60.8 °F 60.8 °F 100% 30.02 in 2.0 mi NE 3.5 mph - 0.05 in Rain , Thunderstorm Heavy Thunderstorms and Rain
7:07 AM 60.8 °F 60.8 °F 100% 30.02 in 6.0 mi East 6.9 mph - 0.05 in Rain , Thunderstorm Light Thunderstorms and Rain
7:28 AM 60.8 °F 60.8 °F 100% 30.01 in 10.0 mi NNE 3.5 mph - 0.05 in   Overcast
7:53 AM 61.0 °F 61.0 °F 100% 30.00 in 10.0 mi SSE 3.5 mph - 0.05 in   Mostly Cloudy
8:53 AM 63.0 °F 63.0 °F 100% 30.01 in 10.0 mi South 6.9 mph - N/A   Scattered Clouds
9:53 AM 66.0 °F 66.0 °F 100% 30.03 in 10.0 mi Calm Calm - N/A   Mostly Cloudy
10:53 AM 68.0 °F 63.0 °F 84% 30.05 in 10.0 mi NNE 3.5 mph - N/A   Overcast
11:19 AM 68.0 °F 62.6 °F 83% 30.08 in 10.0 mi Calm Calm - N/A   Overcast
11:53 AM 69.1 °F 64.0 °F 84% 30.06 in 10.0 mi North 6.9 mph - N/A   Overcast
12:00 PM 68.0 °F 64.4 °F 88% 30.09 in 10.0 mi North 8.1 mph - N/A   Overcast
12:09 PM 66.2 °F 62.6 °F 88% 30.09 in 10.0 mi North 10.4 mph - N/A   Overcast
12:53 PM 66.9 °F 63.0 °F 87% 30.07 in 10.0 mi North 9.2 mph - N/A   Overcast
1:05 PM 66.2 °F 62.6 °F 88% 30.10 in 10.0 mi North 12.7 mph - N/A   Overcast
1:53 PM 64.9 °F 62.1 °F 90% 30.07 in 10.0 mi NNE 11.5 mph - N/A   Overcast
2:53 PM 64.9 °F 61.0 °F 87% 30.06 in 10.0 mi NNE 12.7 mph - N/A   Overcast
3:34 PM 66.2 °F 60.8 °F 83% 30.09 in 10.0 mi NNE 13.8 mph - N/A   Overcast
3:53 PM 66.0 °F 62.1 °F 87% 30.06 in 10.0 mi North 15.0 mph - N/A   Overcast
4:53 PM 68.0 °F 61.0 °F 78% 30.06 in 10.0 mi NE 9.2 mph - N/A   Mostly Cloudy
5:08 PM 66.2 °F 60.8 °F 83% 30.09 in 10.0 mi NE 12.7 mph - N/A   Scattered Clouds
5:39 PM 66.2 °F 60.8 °F 83% 30.09 in 10.0 mi NE 10.4 mph - N/A   Mostly Cloudy
5:48 PM 66.2 °F 60.8 °F 83% 30.09 in 10.0 mi NE 8.1 mph - N/A   Scattered Clouds
5:53 PM 66.0 °F 60.1 °F 81% 30.07 in 10.0 mi NE 9.2 mph - N/A   Partly Cloudy
6:53 PM 64.0 °F 59.0 °F 84% 30.11 in 10.0 mi East 4.6 mph - N/A   Mostly Cloudy
7:53 PM 62.1 °F 59.0 °F 90% 30.12 in 10.0 mi ENE 4.6 mph - N/A   Mostly Cloudy
8:53 PM 63.0 °F 59.0 °F 87% 30.14 in 10.0 mi NE 3.5 mph - N/A   Overcast
9:53 PM 62.1 °F 59.0 °F 90% 30.14 in 10.0 mi NE 4.6 mph - N/A   Mostly Cloudy
10:53 PM 62.1 °F 55.9 °F 80% 30.15 in 10.0 mi ENE 5.8 mph - N/A   Overcast
11:53 PM 61.0 °F 54.0 °F 78% 30.16 in 10.0 mi NE 5.8 mph - N/A   Overcast